Location: Newark
(13.9667°S, 33.8167°E)
Time: 00:59:44
(UTC+00:00)

Envisat - Visible Passes

Search period start: 20 September 2019 00:00
Search period end: 30 September 2019 00:00
Orbit: 764 x 766 km, 98.1° (Epoch: 19 September)

Date Brightness Start Highest point End Pass type
(mag) Time Alt. Az. Time Alt. Az. Time Alt. Az.
20 Sep 5.6 17:28:53 10° SSW 17:32:22 19° WSW 17:35:49 10° WNW visible
21 Sep 3.9 16:50:53 10° S 16:55:48 50° WSW 17:00:42 10° NNW visible
22 Sep 3.0 16:14:07 10° SSE 16:19:09 58° E 16:24:06 10° N visible
23 Sep 5.2 17:17:05 10° SSW 17:21:11 25° WSW 17:25:15 10° NW visible
24 Sep 3.3 16:39:31 10° S 16:44:35 69° WSW 16:49:37 10° NNW visible
25 Sep 3.4 16:03:04 10° SSE 16:07:54 42° E 16:12:40 10° N visible
25 Sep 6.2 17:44:33 10° SW 17:46:29 12° WSW 17:48:25 10° W visible
26 Sep 6.3 03:05:39 10° E 03:07:49 13° ESE 03:09:59 10° SE visible
26 Sep 4.7 17:05:27 10° SSW 17:09:59 33° WSW 17:14:30 10° NW visible
27 Sep 3.0 16:28:14 10° SSE 16:33:22 88° E 16:38:26 10° NNW visible
28 Sep 5.8 17:32:10 10° SW 17:35:19 17° WSW 17:38:28 10° WNW visible
29 Sep 4.2 16:53:56 10° S 16:58:47 45° WSW 17:03:35 10° NNW visible
